This is the latest recevied weather packets stored in our database for station/object OE3KJN-13. If no packets are shown the sender has not sent any weather packets the latest 1 day(s).
| Time | Temp. | Humidity | Pressure | Rain* | Wind** | Luminosity | Snow |
|---|---|---|---|---|---|---|---|
| 1778010851 | 20° C | 100% | 0 hPa | 0 mm | 3.13 m/s, 322° | - | - |
| 1778010551 | 20° C | 100% | 0 hPa | 0 mm | 2.24 m/s, 254° | - | - |
| 1778010251 | 20.56° C | 100% | 0 hPa | 0 mm | 3.58 m/s, 292° | - | - |
| 1778009951 | 20.56° C | 100% | 0 hPa | 0 mm | 4.47 m/s, 258° | - | - |
| 1778009650 | 20° C | 100% | 0 hPa | 0 mm | 5.36 m/s, 268° | - | - |
| 1778009350 | 20.56° C | 100% | 0 hPa | 0 mm | 3.58 m/s, 285° | - | - |
| 1778009050 | 20.56° C | 100% | 0 hPa | 0 mm | 3.58 m/s, 254° | - | - |
| 1778008749 | 20.56° C | 100% | 0 hPa | 0 mm | 3.58 m/s, 312° | - | - |
| 1778008449 | 21.11° C | 100% | 0 hPa | 0 mm | 2.24 m/s, 313° | - | - |
| 1778008149 | 21.11° C | 100% | 0 hPa | 0 mm | 3.13 m/s, 261° | - | - |
| 1778007849 | 21.11° C | 100% | 0 hPa | 0 mm | 4.47 m/s, 250° | - | - |
| 1778007548 | 21.11° C | 100% | 0 hPa | 0 mm | 3.13 m/s, 300° | - | - |
| 1778007248 | 20.56° C | 100% | 0 hPa | 0 mm | 3.13 m/s, 255° | - | - |
| 1778006948 | 21.11° C | 100% | 0 hPa | 0 mm | 2.68 m/s, 307° | - | - |
| 1778006647 | 21.11° C | 100% | 0 hPa | 0 mm | 4.02 m/s, 312° | - | - |
| 1778006347 | 21.11° C | 100% | 0 hPa | 0 mm | 4.47 m/s, 279° | - | - |
| 1778006047 | 21.11° C | 100% | 0 hPa | 0 mm | 4.02 m/s, 282° | - | - |
| 1778005746 | 21.11° C | 100% | 0 hPa | 0 mm | 3.58 m/s, 262° | - | - |
| 1778005446 | 21.11° C | 100% | 0 hPa | 0 mm | 4.02 m/s, 232° | - | - |
| 1778005146 | 21.67° C | 100% | 0 hPa | 0 mm | 4.02 m/s, 296° | - | - |
| 1778004846 | 21.67° C | 100% | 0 hPa | 0 mm | 3.58 m/s, 291° | - | - |
| 1778004545 | 21.67° C | 100% | 0 hPa | 0 mm | 5.36 m/s, 310° | - | - |
| 1778004245 | 22.22° C | 100% | 0 hPa | 0 mm | 3.58 m/s, 260° | - | - |
| 1778003945 | 21.67° C | 100% | 0 hPa | 0 mm | 4.92 m/s, 271° | - | - |
| 1778003644 | 21.67° C | 100% | 0 hPa | 0 mm | 2.68 m/s, 244° | - | - |
* Rain latest hour (hover to see other rain measurements)
** Current wind speed in m/s (hover to see current wind gust speed)